Time,TemperatureF,DewpointF,PressureIn,WindDirection,WindDirectionDegrees,WindSpeedMPH,WindSpeedGustMPH,Humidity,HourlyPrecipIn,Conditions,Clouds,dailyrainin,SoftwareType,DateUTC
2013-01-18 00:05:00,23.9,16.8,30.37,WNW,285,2.0,9.0,74,0.00,,,0.00,Wunderground v.1.15,2013-01-18 05:05:00,
2013-01-18 01:05:00,22.6,14.3,30.41,WNW,284,1.0,9.0,70,0.00,,,0.00,Wunderground v.1.15,2013-01-18 06:05:00,
2013-01-18 02:05:00,21.5,13.9,30.45,WNW,288,0.0,9.0,72,0.00,,,0.00,Wunderground v.1.15,2013-01-18 07:05:00,
2013-01-18 03:05:00,19.1,13.1,30.46,WNW,288,0.0,9.0,77,0.00,,,0.00,Wunderground v.1.15,2013-01-18 08:05:00,
2013-01-18 04:05:00,17.5,12.9,30.47,WNW,288,0.0,0.0,82,0.00,,,0.00,Wunderground v.1.15,2013-01-18 09:05:00,
2013-01-18 05:05:00,16.4,12.9,30.48,WNW,288,0.0,0.0,86,0.00,,,0.00,Wunderground v.1.15,2013-01-18 10:05:00,
2013-01-18 06:05:00,16.3,13.4,30.49,WNW,288,0.0,0.0,88,0.00,,,0.00,Wunderground v.1.15,2013-01-18 11:05:00,
2013-01-18 07:05:00,17.8,15.1,30.51,WNW,288,0.0,0.0,89,0.00,,,0.00,Wunderground v.1.15,2013-01-18 12:05:00,
2013-01-18 08:05:00,17.5,14.6,30.51,WNW,288,0.0,0.0,88,0.00,,,0.00,Wunderground v.1.15,2013-01-18 13:05:00,
2013-01-18 09:05:00,21.7,17.6,30.53,SW,217,0.0,2.0,84,0.00,,,0.00,Wunderground v.1.15,2013-01-18 14:05:00,
2013-01-18 10:05:00,26.2,18.7,30.54,West,269,0.0,2.0,73,0.00,,,0.00,Wunderground v.1.15,2013-01-18 15:05:00,
2013-01-18 11:05:00,29.1,18.8,30.53,West,260,1.0,3.0,65,0.00,,,0.00,Wunderground v.1.15,2013-01-18 16:05:00,
2013-01-18 12:05:00,32.1,19.4,30.50,SSW,202,1.0,3.0,59,0.00,,,0.00,Wunderground v.1.15,2013-01-18 17:05:00,
2013-01-18 13:05:00,33.7,20.5,30.46,SSE,157,1.0,3.0,58,0.00,,,0.00,Wunderground v.1.15,2013-01-18 18:05:00,
2013-01-18 14:05:00,34.1,20.4,30.44,SSW,199,2.0,3.0,57,0.00,,,0.00,Wunderground v.1.15,2013-01-18 19:05:00,
2013-01-18 15:05:00,35.5,21.8,30.41,SW,223,2.0,3.0,57,0.00,,,0.00,Wunderground v.1.15,2013-01-18 20:05:00,
2013-01-18 16:05:00,34.7,21.8,30.40,SSE,161,1.0,3.0,59,0.00,,,0.00,Wunderground v.1.15,2013-01-18 21:05:00,
2013-01-18 17:05:00,33.9,21.9,30.38,WSW,238,2.0,3.0,61,0.00,,,0.00,Wunderground v.1.15,2013-01-18 22:05:00,
2013-01-18 18:05:00,32.5,22.4,30.36,SSE,161,1.0,3.0,66,0.00,,,0.00,Wunderground v.1.15,2013-01-18 23:05:00,
2013-01-18 19:05:00,31.6,23.9,30.35,South,175,1.0,3.0,73,0.00,,,0.00,Wunderground v.1.15,2013-01-19 00:05:00,
2013-01-18 20:05:00,31.1,24.4,30.33,South,178,1.0,3.0,76,0.00,,,0.00,Wunderground v.1.15,2013-01-19 01:05:00,
2013-01-18 21:05:00,31.0,24.9,30.30,SSW,194,1.0,3.0,78,0.00,,,0.00,Wunderground v.1.15,2013-01-19 02:05:00,
2013-01-18 22:05:00,31.4,25.3,30.28,South,190,1.0,3.0,78,0.00,,,0.00,Wunderground v.1.15,2013-01-19 03:05:00,
2013-01-18 23:05:00,31.9,25.8,30.25,SSW,213,1.0,3.0,78,0.00,,,0.00,Wunderground v.1.15,2013-01-19 04:05:00,